"Pseudo-MPEC" for A11Gjjb

Created 2026 Sep 4 14:35:03 UT using Find_Orb

Click here for an explanation of pseudo-MPECs

 
 Astrometry: 
     A11Gjjb*0C2026 09 04.45224422 27 39.302-21 49 33.67   ~94EK 14.87oVNEOCPT05
     A11Gjjb 0C2026 09 04.45765622 27 35.614-21 49 17.62   ~94EK 14.87oVNEOCPT05
     A11Gjjb 0C2026 09 04.46082522 27 33.490-21 49 07.68   ~94EK 14.86oVNEOCPT05
     A11Gjjb 0C2026 09 04.48506122 27 17.868-21 47 43.26   ~94EK 14.88oVNEOCPT05

Station data:
(T05) ATLAS-HKO, Haleakala  (N20.707551 W156.257010)  US/Hawaii.  Observers
   L. Denneau, R. Siverd, J. Tonry, H. Weiland. Measurers L. Denneau, N.
   Erasmus, A. Fitzsimmons, J. Robinson, R. Siverd, J. Tonry, H. Weiland.
   0.5-m f/2.0 Schmidt + CCD.

Orbital elements:  A11Gjjb
   Perihelion 2026 Nov 16.226281 +/- 103 TT =  5:25:50.6 (JD 2461360.726281)
Epoch 2026 Sep  4.0 TT = JDT 2461287.5   Earth MOID: 0.0063      AutoNEOCP
M 298.253347145 +/- 100             (J2000 ecliptic)
n   0.843230765 +/- 0.148           Peri.   84.888224 +/- 60
a   1.109613555 +/- 0.129           Node   344.840688 +/- 60
e   0.24036446 +/- 0.104            Incl.    5.409561 +/- 2.7
P   1.169/426.921d         H 21.78  G  0.15   U 11.5  SR
q 0.842901881 +/- 0.0966    Q 1.376325229 +/- 0.242
From 4 observations 2026 Sept. 4 (47.3 min); mean residual 1".08
Residuals in arcseconds: 
260904 T05  1.6+  1.4+    260904 T05  1.5-  1.2-    
260904 T05  .64-  .57-    260904 T05  .48+  .42+    

Ephemerides (geocentric):
Date (UTC) HH   RA             Dec           delta  r     elong  mag " sig PA
---- --------  ------------   ------------  ------ ------ -----  --- --------
2026 09 04 15  22 26 08.933   -21 37 03.73  .03098 1.0383 164.2 15.2 1122 115
2026 09 04 16  22 25 45.586   -21 34 42.68  .03082 1.0381 164.2 15.1 1302 110
2026 09 04 17  22 25 22.009   -21 32 19.90  .03066 1.0380 164.1 15.1 1489 107
2026 09 04 18  22 24 58.200   -21 29 55.35  .03050 1.0378 164.1 15.1 1682 104
2026 09 04 19  22 24 34.156   -21 27 29.01  .03034 1.0376 164.1 15.1 1879 102
2026 09 04 20  22 24 09.873   -21 25 00.84  .03018 1.0374 164.0 15.1 2079 100
2026 09 04 21  22 23 45.347   -21 22 30.81  .03002 1.0373 164.0 15.1 2282  98
2026 09 04 22  22 23 20.575   -21 19 58.91  .02986 1.0371 164.0 15.1 2488  97
2026 09 04 23  22 22 55.554   -21 17 25.08  .02970 1.0369 163.9 15.1 2696  96
2026 09 05 00  22 22 30.281   -21 14 49.31  .02954 1.0368 163.9 15.1 2906  95
2026 09 05 01  22 22 04.751   -21 12 11.55  .02939 1.0366 163.8 15.1 3119  94
2026 09 05 02  22 21 38.961   -21 09 31.78  .02923 1.0364 163.8 15.0 3335  93
2026 09 05 03  22 21 12.907   -21 06 49.96  .02907 1.0363 163.7 15.0 3553  92
2026 09 05 04  22 20 46.585   -21 04 06.05  .02891 1.0361 163.7 15.0 3774  92
2026 09 05 05  22 20 19.992   -21 01 20.03  .02875 1.0359 163.7 15.0 3998  91
2026 09 05 06  22 19 53.124   -20 58 31.84  .02860 1.0358 163.6 15.0 4226  90
2026 09 05 07  22 19 25.976   -20 55 41.46  .02844 1.0356 163.6 15.0 4459  90
2026 09 05 08  22 18 58.544   -20 52 48.85  .02828 1.0354 163.5 15.0 4697  89
2026 09 05 09  22 18 30.825   -20 49 53.97  .02812 1.0353 163.5 15.0 4941  88
2026 09 05 10  22 18 02.813   -20 46 56.77  .02796 1.0351 163.4 15.0 5193  87
2026 09 05 11  22 17 34.505   -20 43 57.23  .02781 1.0349 163.3 14.9 5455  86
2026 09 05 12  22 17 05.897   -20 40 55.28  .02765 1.0348 163.3 14.9 5732  85
2026 09 05 13  22 16 36.983   -20 37 50.91  .02749 1.0346 163.2 14.9 6027  83
2026 09 05 14  22 16 07.759   -20 34 44.05  .02734 1.0344 163.2 14.9 6351  82
2026 09 05 15  22 15 38.221   -20 31 34.66  .02718 1.0342 163.1 14.9 6719  79
2026 09 05 16  22 15 08.363   -20 28 22.71  .02702 1.0341 163.0 14.9 7160  75
2026 09 05 17  22 14 38.181   -20 25 08.14  .02687 1.0339 163.0 14.9 7731  70
2026 09 05 18  22 14 07.670   -20 21 50.91  .02671 1.0337 162.9 14.9 8552  63
2026 09 05 19  22 13 36.825   -20 18 30.96  .02656 1.0336 162.9 14.9 9865  54
2026 09 05 20  22 13 05.641   -20 15 08.25  .02640 1.0334 162.8 14.9 202'  45
2026 09 05 21  22 12 34.112   -20 11 42.73  .02624 1.0332 162.7 14.8 274'  38
2026 09 05 22  22 12 02.233   -20 08 14.34  .02609 1.0331 162.6 14.8 430'  34
2026 09 05 23  22 11 29.999   -20 04 43.03  .02593 1.0329 162.6 14.8 893'  33
2026 09 06 00  22 10 57.404   -20 01 08.75  .02578 1.0327 162.5 14.8  37d  59
2026 09 06 01  22 10 24.442   -19 57 31.44  .02562 1.0326 162.4 14.8  43d  72
2026 09 06 02  22 09 51.108   -19 53 51.05  .02547 1.0324 162.3 14.8  44d  75
2026 09 06 03  22 09 17.396   -19 50 07.51  .02531 1.0322 162.3 14.8  45d  77
2026 09 06 04  22 08 43.300   -19 46 20.76  .02516 1.0321 162.2 14.8  45d  78
2026 09 06 05  22 08 08.813   -19 42 30.76  .02501 1.0319 162.1 14.8  44d 101
2026 09 06 06  22 07 33.930   -19 38 37.42  .02485 1.0317 162.0 14.7  44d 100
2026 09 06 07  22 06 58.644   -19 34 40.70  .02470 1.0316 161.9 14.7  44d  99
2026 09 06 08  22 06 22.948   -19 30 40.51  .02454 1.0314 161.8 14.7  44d  98
2026 09 06 09  22 05 46.837   -19 26 36.81  .02439 1.0312 161.7 14.7  45d  97
2026 09 06 10  22 05 10.303   -19 22 29.51  .02424 1.0310 161.6 14.7  46d  94
2026 09 06 11  22 04 33.339   -19 18 18.55  .02408 1.0309 161.5 14.7  48d  90
2026 09 06 12  22 03 55.938   -19 14 03.86  .02393 1.0307 161.4 14.7  52d  87
2026 09 06 13  22 03 18.093   -19 09 45.36  .02378 1.0305 161.3 14.7  54d  86
2026 09 06 14  22 02 39.798   -19 05 22.97  .02363 1.0304 161.2 14.7  56d  86